[Iaude] MPEC P51: 2024 PL [a=2.74,e=0.61,i=3.9,H=25.0]

mpec at cfa.harvard.edu mpec at cfa.harvard.edu
Sat Aug 3 14:58:13 EDT 2024


M.P.E.C. 2024-P51                                Issued 2024 August 3, 18:56 UT

     The Minor Planet Electronic Circulars contain information on unusual
         minor planets, routine data on comets and natural satellites,
         and occasional editorial announcements.  They are published
    on behalf of Division F of the International Astronomical Union by the
          Minor Planet Center, Smithsonian Astrophysical Observatory,
                          Cambridge, MA 02138, U.S.A.
			  
             Prepared using the Tamkin Foundation Computer Network

                              MPC at CFA.HARVARD.EDU
            URL https://www.minorplanetcenter.net/    ISSN 1523-6714

                                    2024 PL                                     


Observations:
     K24P00L* C2024 08 01.36967019 54 38.451-33 32 45.67         21.07wXEP051F51
     K24P00L  C2024 08 01.37613119 54 43.539-33 32 47.29         21.03wXEP051F51
     K24P00L  C2024 08 01.38258319 54 48.596-33 32 48.50         20.75wXEP051F51
     K24P00L KC2024 08 01.54818919 57 03.329-33 31 27.08         20.4 GVEP051474
     K24P00L KC2024 08 01.55070719 57 05.366-33 31 27.08         20.7 GVEP051474
     K24P00L KC2024 08 01.55448519 57 08.318-33 31 27.26         21.1 GVEP051474
     K24P00L KC2024 08 01.55952319 57 12.360-33 31 27.08         20.4 GVEP051474
     K24P00L KC2024 08 02.41634820 08 49.152-33 30 27.76         20.4 GVEP051474
     K24P00L KC2024 08 02.42036220 08 52.171-33 30 27.54         20.3 GVEP051474
     K24P00L KC2024 08 02.42487820 08 55.546-33 30 27.14         20.5 GVEP051474
     K24P00L KC2024 08 02.43100220 09 00.218-33 30 26.32         21.0 GVEP051474
     K24P00L 1C2024 08 03.40384720 21 21.287-33 25 57.75         21.03GVEP051T12
     K24P00L 1C2024 08 03.40652720 21 23.182-33 25 56.75         20.38GVEP051T12
     K24P00L 1C2024 08 03.40769720 21 24.040-33 25 55.74         20.56GVEP051T12

Observer details:
474 Mount John Observatory, Lake Tekapo.  Observers A. C. Gilmore, P. M.
    Kilmartin.  Measurer P. M. Kilmartin.  0.6-m f/6.3 Reflector + CCD.
F51 Pan-STARRS 1, Haleakala.  Observers J. Herman, T. Lowe, P. Minguez, A.
    Schultz, I. Smith.  Measurers K. Chambers, T. de Boer, J. Fairlamb, H.
    Gao, M. Huber, C.-C. Lin, E. Magnier, Y. Ramanjooloo, R. Wainscoat, R.
    Weryk.  1.8-m Ritchey-Chretien + CCD.
T12 University of Hawaii 88-inch telescope, Maunakea.  Observer Y.
    Ramanjooloo.  Measurers R. Weryk, Y. Ramanjooloo, J. Fairlamb, R.
    Wainscoat.  2.24-m f/10.1 reflector + CCD.

Orbital elements:
2024 PL                                                  Earth MOID = 0.0572 AU
Epoch 2024 Oct. 17.0 TT = JDT 2460600.5                 MPC                     
M  20.46691              (2000.0)            P               Q                  
n   0.21702074     Peri.  174.65105     +0.31828167     +0.94591539             
a   2.7424279      Node   113.89584     -0.87229574     +0.31815304             
e   0.6089319      Incl.    3.93713     -0.37121007     +0.06342497             
P   4.54           H   25.07          G   0.15           U   8                  
Residuals in seconds of arc
240801 F51  0.1+  0.1+    240801 474  0.3-  0.3-    240802 474  0.2+  0.1+
240801 F51  0.0   0.1-    240801 474  0.3+  0.1-    240803 T12  0.5-  0.2+
240801 F51  0.2-  0.0     240802 474  0.3+  0.2+    240803 T12  0.1-  0.2-
240801 474  0.3-  0.1-    240802 474  0.1+  0.1+    240803 T12  0.5+  0.2+
240801 474  0.3+  0.1-    240802 474  0.4-  0.0

Ephemeris:
2024 PL                  a,e,i = 2.74, 0.61, 4                   q = 1.0725
Date    TT    R. A. (2000) Decl.     Delta      r    Elong.  Phase     V
2024 07 04    14 49 26.1 -05 25 10   0.1225  1.0812   118.9    55.4    22.7
...
2024 07 19    16 35 45.8 -21 35 18   0.08075 1.0738   134.0    42.9    21.4
...
2024 07 27    18 32 07.2 -31 21 59   0.07727 1.0842   151.7    26.4    20.9
...
2024 08 02    20 03 13.7 -33 31 52   0.08766 1.0982   161.2    17.4    20.9
2024 08 03    20 16 17.2 -33 27 49   0.09035 1.1010   162.0    16.5    20.9
2024 08 04    20 28 33.4 -33 18 42   0.09327 1.1040   162.7    15.8    21.0
...
2024 08 10    21 26 08.0 -31 22 27   0.1149  1.1247   164.1    14.3    21.4
...
2024 08 18    22 10 36.9 -28 11 00   0.1519  1.1591   164.2    13.8    22.1
...
2024 09 02    22 46 51.2 -23 28 26   0.2394  1.2413   164.5    12.6    23.2

A. U. Tomatic                (C) Copyright 2024 MPC           M.P.E.C. 2024-P51





More information about the Iaude mailing list